Hourly Weather San Carlos

Today, 12 July, Sunday

Time Temperature Precipitation Wind Pressure Humidity
00:00 +24°C° 0 mm 1 mps 745 mmHg 96%
01:00 +24°C° 0 mm 1 mps 745 mmHg 96%
02:00 +24°C° 0 mm 1 mps 745 mmHg 96%
03:00 +24°C° 0 mm 1 mps 745 mmHg 97%
04:00 +24°C° 0 mm 1 mps 745 mmHg 97%
05:00 +22°C° 0.3 mm 0 mps 745 mmHg 97%
06:00 +22°C° 0.3 mm 0 mps 746 mmHg 97%
07:00 +23°C° 0.3 mm 0 mps 746 mmHg 97%
08:00 +23°C° 0.3 mm 0 mps 746 mmHg 96%
09:00 +26°C° 0.3 mm 1 mps 746 mmHg 95%
10:00 +26°C° 0.3 mm 1 mps 746 mmHg 94%
11:00 +27°C° 1.2 mm 1 mps 746 mmHg 94%
12:00 +27°C° 1.2 mm 2 mps 746 mmHg 93%
13:00 +27°C° 1.2 mm 2 mps 745 mmHg 93%
14:00 +27°C° 0.8 mm 1 mps 745 mmHg 92%
15:00 +27°C° 0.8 mm 1 mps 744 mmHg 90%
16:00 +25°C° 0.8 mm 0 mps 743 mmHg 89%
17:00 +25°C° 0 mm 0 mps 744 mmHg 91%
18:00 +24°C° 0 mm 0 mps 744 mmHg 94%
19:00 +23°C° 0 mm 0 mps 745 mmHg 97%
20:00 +22°C° 0 mm 0 mps 745 mmHg 96%
21:00 +22°C° 0 mm 0 mps 746 mmHg 96%
22:00 +22°C° 0 mm 0 mps 746 mmHg 95%
23:00 +22°C° 0 mm 0 mps 746 mmHg 95%

Tomorrow, 13 July, Monday

Time Temperature Precipitation Wind Pressure Humidity
00:00 +21°C° 0 mm 0 mps 745 mmHg 94%
01:00 +21°C° 0 mm 0 mps 745 mmHg 94%
02:00 +21°C° 0 mm 0 mps 745 mmHg 93%
03:00 +21°C° 0 mm 0 mps 745 mmHg 92%
04:00 +21°C° 0 mm 0 mps 745 mmHg 92%
05:00 +22°C° 0 mm 0 mps 745 mmHg 89%
06:00 +23°C° 0 mm 0 mps 746 mmHg 87%
07:00 +24°C° 0 mm 0 mps 746 mmHg 85%
08:00 +27°C° 0 mm 1 mps 747 mmHg 79%
09:00 +29°C° 0 mm 1 mps 747 mmHg 74%
10:00 +31°C° 0 mm 2 mps 747 mmHg 68%
11:00 +30°C° 0.8 mm 2 mps 746 mmHg 74%
12:00 +30°C° 0.8 mm 2 mps 746 mmHg 80%
13:00 +29°C° 0.8 mm 2 mps 745 mmHg 86%
14:00 +29°C° 1 mm 1 mps 745 mmHg 87%
15:00 +29°C° 1 mm 1 mps 745 mmHg 89%
16:00 +26°C° 1 mm 0 mps 744 mmHg 90%
17:00 +25°C° 0.3 mm 0 mps 745 mmHg 92%
18:00 +24°C° 0.3 mm 0 mps 745 mmHg 94%
19:00 +26°C° 0.3 mm 1 mps 745 mmHg 97%
20:00 +25°C° 0 mm 1 mps 746 mmHg 96%
21:00 +25°C° 0 mm 1 mps 746 mmHg 96%
22:00 +25°C° 0 mm 1 mps 747 mmHg 95%
23:00 +25°C° 0 mm 1 mps 746 mmHg 95%

Day after tomorrow, 14 July, Tuesday

Time Temperature Precipitation Wind Pressure Humidity
00:00 +25°C° 0 mm 1 mps 746 mmHg 95%
01:00 +22°C° 0 mm 0 mps 746 mmHg 94%
02:00 +22°C° 0.2 mm 0 mps 745 mmHg 95%
03:00 +22°C° 0.2 mm 0 mps 745 mmHg 95%
04:00 +22°C° 0.2 mm 0 mps 745 mmHg 96%
05:00 +23°C° 0.1 mm 0 mps 746 mmHg 95%
06:00 +23°C° 0.1 mm 0 mps 746 mmHg 95%
07:00 +24°C° 0.1 mm 0 mps 747 mmHg 94%
08:00 +25°C° 0 mm 0 mps 747 mmHg 87%
09:00 +27°C° 0 mm 0 mps 747 mmHg 80%
10:00 +31°C° 0 mm 1 mps 747 mmHg 72%
11:00 +31°C° 0.1 mm 1 mps 746 mmHg 71%
12:00 +32°C° 0.1 mm 1 mps 746 mmHg 69%
13:00 +32°C° 0.1 mm 1 mps 745 mmHg 67%
14:00 +32°C° 0.1 mm 1 mps 744 mmHg 69%
15:00 +31°C° 0.1 mm 1 mps 744 mmHg 71%
16:00 +31°C° 0.1 mm 1 mps 743 mmHg 73%
17:00 +29°C° 0.1 mm 1 mps 744 mmHg 80%
18:00 +26°C° 0.1 mm 0 mps 744 mmHg 87%
19:00 +24°C° 0.1 mm 0 mps 745 mmHg 94%
20:00 +24°C° 0.1 mm 0 mps 745 mmHg 94%
21:00 +24°C° 0.1 mm 0 mps 746 mmHg 95%
22:00 +23°C° 0.1 mm 0 mps 746 mmHg 95%
23:00 +23°C° 0.1 mm 0 mps 746 mmHg 95%

15 July, Wednesday

Time Temperature Precipitation Wind Pressure Humidity
00:00 +23°C° 0.1 mm 0 mps 745 mmHg 96%
01:00 +23°C° 0.1 mm 0 mps 745 mmHg 96%
02:00 +25°C° 0.1 mm 1 mps 745 mmHg 96%
03:00 +25°C° 0.1 mm 1 mps 745 mmHg 96%
04:00 +24°C° 0.1 mm 1 mps 745 mmHg 97%
05:00 +23°C° 0.3 mm 0 mps 745 mmHg 95%
06:00 +24°C° 0.3 mm 0 mps 745 mmHg 93%
07:00 +25°C° 0.3 mm 0 mps 746 mmHg 92%
08:00 +26°C° 0.7 mm 0 mps 746 mmHg 87%
09:00 +29°C° 0.7 mm 1 mps 746 mmHg 82%
10:00 +30°C° 0.7 mm 1 mps 746 mmHg 77%
11:00 +31°C° 0.7 mm 1 mps 745 mmHg 75%
12:00 +31°C° 0.7 mm 1 mps 745 mmHg 73%
13:00 +31°C° 0.7 mm 1 mps 744 mmHg 72%
14:00 +31°C° 0.7 mm 1 mps 744 mmHg 75%
15:00 +30°C° 0.7 mm 1 mps 743 mmHg 78%
16:00 +28°C° 0.7 mm 0 mps 743 mmHg 81%
17:00 +26°C° 0.3 mm 0 mps 743 mmHg 85%
18:00 +25°C° 0.3 mm 0 mps 743 mmHg 90%
19:00 +24°C° 0.3 mm 0 mps 744 mmHg 95%
20:00 +25°C° 0.1 mm 1 mps 744 mmHg 95%
21:00 +25°C° 0.1 mm 1 mps 745 mmHg 95%
22:00 +24°C° 0.1 mm 1 mps 745 mmHg 96%
23:00 +24°C° 0.2 mm 1 mps 745 mmHg 96%

16 July, Thursday

Time Temperature Precipitation Wind Pressure Humidity
00:00 +24°C° 0.2 mm 1 mps 744 mmHg 96%
01:00 +24°C° 0.2 mm 1 mps 744 mmHg 96%
02:00 +21°C° 0 mm 0 mps 744 mmHg 96%
03:00 +21°C° 0 mm 0 mps 744 mmHg 96%
04:00 +21°C° 0 mm 0 mps 744 mmHg 95%
05:00 +22°C° 0.1 mm 0 mps 745 mmHg 94%
06:00 +23°C° 0.1 mm 0 mps 745 mmHg 93%
07:00 +24°C° 0.1 mm 0 mps 745 mmHg 92%
08:00 +27°C° 1.4 mm 1 mps 745 mmHg 90%
09:00 +28°C° 1.4 mm 1 mps 745 mmHg 88%
10:00 +29°C° 1.4 mm 2 mps 746 mmHg 86%
11:00 +29°C° 2 mm 2 mps 745 mmHg 85%
12:00 +30°C° 2 mm 1 mps 744 mmHg 83%
13:00 +30°C° 2 mm 1 mps 744 mmHg 81%
14:00 +30°C° 2 mm 1 mps 743 mmHg 85%
15:00 +29°C° 2 mm 1 mps 743 mmHg 88%
16:00 +29°C° 2 mm 1 mps 743 mmHg 91%
17:00 +26°C° 1.4 mm 0 mps 743 mmHg 92%
18:00 +25°C° 1.4 mm 0 mps 744 mmHg 93%
19:00 +24°C° 1.4 mm 0 mps 744 mmHg 93%
20:00 +23°C° 0.4 mm 0 mps 745 mmHg 94%
21:00 +23°C° 0.4 mm 0 mps 745 mmHg 94%
22:00 +23°C° 0.4 mm 0 mps 746 mmHg 94%
23:00 +23°C° 0.5 mm 0 mps 745 mmHg 95%

17 July, Friday

Time Temperature Precipitation Wind Pressure Humidity
00:00 +22°C° 0.5 mm 0 mps 745 mmHg 96%
01:00 +22°C° 0.5 mm 0 mps 744 mmHg 96%
02:00 +22°C° 0.3 mm 0 mps 744 mmHg 96%
03:00 +22°C° 0.3 mm 0 mps 745 mmHg 96%
04:00 +24°C° 0.3 mm 1 mps 745 mmHg 96%
05:00 +24°C° 0.3 mm 1 mps 745 mmHg 96%
06:00 +25°C° 0.3 mm 1 mps 745 mmHg 95%
07:00 +25°C° 0.3 mm 1 mps 746 mmHg 95%
08:00 +26°C° 1.1 mm 1 mps 746 mmHg 93%
09:00 +27°C° 1.1 mm 2 mps 746 mmHg 92%
10:00 +28°C° 1.1 mm 2 mps 746 mmHg 90%
11:00 +29°C° 2.3 mm 2 mps 745 mmHg 90%
12:00 +29°C° 2.2 mm 2 mps 744 mmHg 90%
13:00 +29°C° 2.2 mm 2 mps 744 mmHg 90%
14:00 +29°C° 1.6 mm 1 mps 743 mmHg 91%
15:00 +29°C° 1.6 mm 1 mps 743 mmHg 92%
16:00 +26°C° 1.6 mm 0 mps 743 mmHg 92%
17:00 +25°C° 0.3 mm 0 mps 743 mmHg 93%
18:00 +24°C° 0.3 mm 0 mps 744 mmHg 94%
19:00 +24°C° 0.3 mm 0 mps 744 mmHg 95%
20:00 +23°C° 0.1 mm 0 mps 744 mmHg 94%
21:00 +23°C° 0.1 mm 0 mps 745 mmHg 94%
22:00 +23°C° 0.1 mm 0 mps 745 mmHg 94%
23:00 +23°C° 0.4 mm 0 mps 745 mmHg 94%
Show more